#datint,netname,site,siteID,timestamp,IntT,BattV,AirT2,AirT,AirT_Avg,AirT_Max,AirT_Min,RH_Avg,RH_Max,RH_Min,EA_Avg,Td_Avg,Td_Max,Td_Min,WindS_Smp,WindS_Avg,WindD_Avg,WindD_SD,WindS_Max,ETo,ETr,SoilT4,SoilT8,SoilVWC8,SolarW_Avg,wetstate_Avg,wetT_Avg,Precip_accum,Precip_WPG,Precip_TB
15min,AgWx,beryljct,423,28JUL2018:01:00:00,68.5,13.01,64.3,64.9,64.3,64.9,62.9,65,71,62,1.320,52.1,53.7,51.6,2.061,1.7,312,28,4.0,-0.00007,-0.00007,75.0,76.2,17,0,0,62.2,15.87,0.00,0.00
15min,AgWx,beryljct,423,28JUL2018:01:15:00,67.7,13,66.2,66.7,65.8,67.2,64.5,58,64,51,1.221,50.5,52.4,48.3,2.477,3.3,231,39,6.9,0.00012,0.00021,74.8,76.1,17,0,0,63.5,15.87,0.00,0.00
15min,AgWx,beryljct,423,28JUL2018:01:30:00,67.2,13,66.2,65.2,66.2,68.8,64.6,55,62,44,1.236,49.7,51.3,45.1,3.793,2.5,188,12,4.4,0.00006,0.00013,74.6,76.0,17,0,0,63.7,15.87,0.00,0.00
15min,AgWx,beryljct,423,28JUL2018:01:45:00,66.8,13,65.3,63.6,65.5,67.3,63.6,54,59,48,1.152,48.2,50.4,46.6,3.113,3.5,182,6.6,5.1,0.00017,0.00028,74.3,75.9,17,0,0,63.5,15.87,0.00,0.00
15min,AgWx,beryljct,423,28JUL2018:02:00:00,66.2,12.98,64.0,63.9,63.9,65.6,62.9,56,67,53,1.358,48.0,52.8,46.3,0.219,2.4,199,17,4.3,0.00004,0.00009,74.1,75.9,17,0,0,62.1,15.87,0.00,0.00
15min,AgWx,beryljct,423,28JUL2018:02:15:00,65.7,12.97,64.5,64.1,64.4,66.4,63.2,61,67,52,1.249,50.7,52.5,47.9,0,2.1,231,0.6,3.9,-0.00001,0.00001,73.9,75.8,17,0,0,62.8,15.87,0.00,0.00
15min,AgWx,beryljct,423,28JUL2018:02:30:00,65.3,12.96,64.6,64.0,64.5,65.4,63.3,59,64,56,1.241,50.0,51.3,48.8,0,0.8,314,49,4.1,-0.00016,-0.00023,73.7,75.7,17,0,0,61.6,15.87,0.00,0.00
15min,AgWx,beryljct,423,28JUL2018:02:45:00,64.7,12.96,62.2,61.4,62.4,63.9,61.2,65,70,61,1.266,50.6,51.6,49.6,0,0.7,351,0.1,2.0,-0.00018,-0.00025,73.4,75.6,17,0,0,60.1,15.87,0.00,0.00
15min,AgWx,beryljct,423,28JUL2018:03:00:00,64.0,12.94,62.0,62.5,61.8,62.6,61.2,67,70,65,1.263,50.8,51.6,50.5,0,0.2,351,0.1,1.1,-0.00024,-0.00037,73.2,75.5,17,0,0,58.7,15.87,0.00,0.00
15min,AgWx,beryljct,423,28JUL2018:03:15:00,63.6,12.95,61.9,61.3,61.9,64.0,60.5,67,73,58,1.283,50.9,52.0,48.9,2.762,3.4,326,18,6.6,0.00006,0.00011,73.0,75.4,17,0,0,60.1,15.87,0.00,0.00
15min,AgWx,beryljct,423,28JUL2018:03:30:00,63.5,12.93,63.1,62.9,62.8,63.6,61.3,64,69,59,1.262,50.5,51.4,49.0,3.793,2.3,214,97,6.7,-0.00001,0.00002,72.8,75.3,17,0,0,61.0,15.87,0.00,0.00
15min,AgWx,beryljct,423,28JUL2018:03:45:00,63.3,12.93,61.4,61.6,61.4,62.7,60.9,70,72,66,1.272,51.4,51.9,50.8,0,0.8,124,7.6,4.5,-0.00016,-0.00023,72.7,75.2,17,0,0,60.0,15.87,0.00,0.00
15min,AgWx,beryljct,423,28JUL2018:04:00:00,63.0,12.93,61.0,61.4,60.9,62.5,59.7,72,79,63,1.214,51.8,53.2,49.7,1.052,0.5,138,0.1,2.0,-0.00020,-0.00029,72.4,74.7,17,0,0,59.1,15.87,0.00,0.00
15min,AgWx,beryljct,423,28JUL2018:04:15:00,62.4,12.92,60.2,59.7,60.2,62.2,59.3,73,77,63,1.271,51.4,52.3,49.3,0,0.7,92,45,3.9,-0.00018,-0.00026,72.2,75.1,17,0,0,57.9,15.88,0.00,0.00
15min,AgWx,beryljct,423,28JUL2018:04:30:00,61.6,12.92,59.6,57.5,59.7,61.7,57.5,72,79,65,1.275,50.6,51.2,49.8,2.411,1.7,85,26,4.2,-0.00009,-0.00011,72.1,74.9,17,0,0,57.1,15.88,0.00,0.00
15min,AgWx,beryljct,423,28JUL2018:04:45:00,60.7,12.9,56.9,56.4,57.0,57.5,56.3,81,84,79,1.297,51.3,51.7,51.0,2.609,1.5,150,44,3.1,-0.00013,-0.00017,71.9,74.8,17,0,0,55.2,15.88,0.00,0.00
15min,AgWx,beryljct,423,28JUL2018:05:00:00,60.0,12.91,58.4,58.3,58.0,59.5,56.4,75,84,69,1.215,50.2,51.6,49.3,0.285,3.2,181,18,4.6,-0.00001,0.00001,71.7,74.7,17,0,0,56.2,15.88,0.00,0.00
15min,AgWx,beryljct,423,28JUL2018:05:15:00,59.6,12.9,59.0,60.0,58.6,60.0,57.5,71,76,65,1.152,49.1,50.1,48.2,2.587,2.0,179,0.5,2.9,-0.00006,-0.00006,71.5,74.6,17,0,0,56.2,15.88,0.00,0.00
15min,AgWx,beryljct,423,28JUL2018:05:30:00,59.3,12.9,58.7,59.6,58.5,60.0,57.7,71,75,65,1.157,49.3,49.9,48.3,0.417,1.6,202,25,3.2,-0.00010,-0.00012,71.3,74.5,17,0,0,56.6,15.88,0.00,0.00
15min,AgWx,beryljct,423,28JUL2018:05:45:00,59.1,12.88,60.3,61.2,60.0,61.6,58.4,66,73,60,1.157,48.4,49.7,47.5,1.337,0.8,217,0.1,3.1,-0.00016,-0.00023,71.1,74.4,17,0,0,57.2,15.88,0.00,0.00
15min,AgWx,beryljct,423,28JUL2018:06:00:00,59.0,12.89,58.7,59.7,58.7,60.7,57.2,71,78,62,1.193,49.4,50.4,47.5,0.965,1.2,260,46,5.0,0.00011,0.00019,70.9,74.3,17,0,0,56.9,15.88,0.00,0.00
15min,AgWx,beryljct,423,28JUL2018:06:15:00,58.8,12.89,57.9,58.5,57.9,59.5,56.9,75,79,70,1.194,49.9,50.6,49.0,2.411,2.9,291,15,5.2,0.00021,0.00036,70.7,74.2,17,0,0,56.5,15.88,0.00,0.00
15min,AgWx,beryljct,423,28JUL2018:06:30:00,58.7,12.88,57.9,57.5,57.8,58.8,57.1,75,78,70,1.232,49.9,50.7,49.1,0.614,0.8,299,2.3,3.4,0.00007,0.00011,70.5,74.1,17,1,0,56.3,15.88,0.00,0.00
15min,AgWx,beryljct,423,28JUL2018:06:45:00,58.5,12.88,57.7,57.6,57.5,58.5,56.4,76,81,71,1.218,50.0,50.6,49.0,0.745,0.9,299,31,4.5,0.00010,0.00014,70.3,74.0,17,5,0,56.0,15.88,0.00,0.00
15min,AgWx,beryljct,423,28JUL2018:07:00:00,58.7,12.9,59.1,57.7,59.0,60.3,57.7,69,74,63,1.201,48.7,49.7,47.7,2.324,2.6,338,7.3,3.8,0.00038,0.00057,70.2,73.9,17,25,0,59.0,15.88,0.00,0.00
15min,AgWx,beryljct,423,28JUL2018:07:15:00,59.0,12.91,58.1,58.5,57.9,58.6,56.9,75,79,71,1.251,50.0,51.2,49.1,1.447,1.5,326,4.1,3.0,0.00047,0.00058,70.0,73.8,17,58,0,63.1,15.88,0.00,0.00
15min,AgWx,beryljct,423,28JUL2018:07:30:00,59.8,12.91,61.0,63.2,60.4,63.2,58.5,71,76,58,1.171,50.7,52.3,48.2,1.03,1.2,330,8.0,2.8,0.00067,0.00079,69.8,73.7,17,99,0,70.6,15.88,0.00,0.00
15min,AgWx,beryljct,423,28JUL2018:07:45:00,61.7,12.91,64.3,64.0,64.1,64.9,63.2,57,63,51,1.249,48.6,51.3,45.9,3.42,3.1,346,3.5,5.4,0.00113,0.00147,69.6,73.6,17,136,0,74.5,15.87,0.00,0.00
15min,AgWx,beryljct,423,28JUL2018:08:00:00,63.8,12.95,65.1,65.7,64.9,65.9,64.0,60,71,55,1.536,50.9,56.1,48.3,0,2.0,0.5,10,3.6,0.00132,0.00157,69.5,73.0,17,191,0,79.6,15.87,0.00,0.00
15min,AgWx,beryljct,423,28JUL2018:08:15:00,66.6,13,68.3,69.4,67.9,69.5,65.4,55,72,48,1.217,51.1,56.4,47.6,2.762,1.8,352,0.8,3.5,0.00185,0.00215,69.4,73.3,17,284,0,88.5,15.87,0.00,0.00
15min,AgWx,beryljct,423,28JUL2018:08:30:00,69.9,13.05,70.8,72.0,70.6,72.0,69.5,47,55,44,1.412,49.3,53.8,47.3,0.526,2.5,347,14,4.1,0.00245,0.00292,69.3,73.2,17,357,0,94.1,15.86,0.00,0.00
15min,AgWx,beryljct,423,28JUL2018:08:45:00,72.9,13.12,72.9,73.3,72.8,73.6,71.8,44,54,40,1.140,49.6,54.5,47.9,4.406,4.1,356,12,6.7,0.00297,0.00366,69.3,73.1,16,397,0,95.2,15.86,0.00,0.00
15min,AgWx,beryljct,423,28JUL2018:09:00:00,75.0,13.2,73.6,74.4,73.6,74.4,73.2,42,47,39,1.142,49.2,52.2,47.7,3.88,4.0,336,9.1,5.8,0.00308,0.00380,69.3,73.0,16,399,0,95.2,15.86,0.00,0.00
15min,AgWx,beryljct,423,28JUL2018:09:15:00,76.8,13.31,75.5,76.6,75.4,76.6,74.4,41,44,39,1.261,49.8,51.9,47.7,4.845,4.0,340,7.7,5.4,0.00333,0.00408,69.3,72.9,16,424,0,96.9,15.85,0.00,0.00
15min,AgWx,beryljct,423,28JUL2018:09:30:00,78.5,13.5,77.7,78.9,77.6,78.9,76.6,39,41,36,1.246,50.9,52.3,49.2,5.152,4.8,357,15,7.5,0.00384,0.00476,69.4,72.8,16,473,0,98.5,15.85,0.00,0.00
15min,AgWx,beryljct,423,28JUL2018:09:45:00,80.2,13.67,79.0,80.0,78.9,80.0,78.0,39,43,37,1.319,51.6,55.6,49.5,2.017,4.1,353,17,6.8,0.00412,0.00498,69.5,72.7,16,521,0,102.0,15.84,0.00,0.00
15min,AgWx,beryljct,423,28JUL2018:10:00:00,82.2,13.83,81.3,82.2,81.3,82.3,80.1,38,42,34,1.310,53.2,55.6,50.6,1.556,3.1,15,15,5.0,0.00439,0.00514,69.6,72.7,16,567,0,107.9,15.84,0.00,0.00
15min,AgWx,beryljct,423,28JUL2018:10:15:00,84.6,13.85,83.4,84.2,83.4,84.3,82.1,35,39,32,1.543,52.8,56.7,50.5,0.46,2.3,4.0,68,7.3,0.00468,0.00537,69.9,72.6,16,613,0,114.8,15.84,0.00,0.00
15min,AgWx,beryljct,423,28JUL2018:10:30:00,86.5,13.87,85.5,86.6,85.5,86.6,84.3,33,39,29,1.306,53.3,57.2,49.9,4.056,5.7,214,28,11.7,0.00557,0.00686,70.1,72.5,16,655,0,112.0,15.84,0.00,0.00
15min,AgWx,beryljct,423,28JUL2018:10:45:00,87.9,13.85,86.7,86.2,86.9,88.1,86.2,32,37,27,1.546,53.1,56.7,48.8,7.168,7.6,209,14,13.8,0.00622,0.00785,70.5,72.5,16,697,0,110.8,15.84,0.00,0.00
15min,AgWx,beryljct,423,28JUL2018:11:00:00,88.9,13.83,87.4,87.8,87.5,88.2,86.2,30,38,27,1.365,52.6,57.9,49.1,5.568,8.2,210,20,14.7,0.00663,0.00841,70.9,72.5,16,736,0,110.1,15.84,0.00,0.00
15min,AgWx,beryljct,423,28JUL2018:11:15:00,90.1,13.74,88.2,88.5,88.4,89.2,87.8,29,37,25,1.505,52.1,58.8,48.7,4.56,4.3,289,59,10.9,0.00634,0.00753,71.3,72.4,16,769,0,115.9,15.83,0.00,0.00
15min,AgWx,beryljct,423,28JUL2018:11:30:00,91.4,13.72,88.6,88.6,88.8,90.0,88.0,28,34,26,1.334,51.8,56.5,49.2,10.87,6.7,224,29,15.3,0.00697,0.00861,71.8,72.5,16,802,0,117.0,15.84,0.00,0.00
15min,AgWx,beryljct,423,28JUL2018:11:45:00,91.7,13.77,88.8,88.5,89.0,89.5,88.5,29,32,26,1.364,52.4,55.6,49.6,11.75,11.1,203,10,16.9,0.00779,0.01011,72.3,72.5,16,833,0,110.7,15.84,0.00,0.00
15min,AgWx,beryljct,423,28JUL2018:12:00:00,91.8,13.82,89.1,89.5,89.3,89.9,88.4,28,30,26,1.261,51.6,54.1,49.6,18.79,12.7,189,13,19.6,0.00820,0.01079,72.9,72.5,16,859,0,108.5,15.84,0.00,0.00
15min,AgWx,beryljct,423,28JUL2018:12:15:00,92.0,13.73,89.4,90.1,89.6,90.2,89.2,28,32,26,1.358,52.2,55.8,50.3,15.45,13.3,199,15,20.0,0.00846,0.01116,73.5,72.6,16,884,0,108.3,15.84,0.00,0.00
15min,AgWx,beryljct,423,28JUL2018:12:30:00,92.2,13.82,89.6,89.8,89.8,90.3,89.3,29,32,26,1.270,53.2,56.0,49.9,13.33,12.5,208,15,19.3,0.00847,0.01105,74.1,72.7,16,904,0,109.4,15.84,0.00,0.00
15min,AgWx,beryljct,423,28JUL2018:12:45:00,92.2,13.39,89.7,89.8,90.0,90.6,89.5,28,32,25,1.348,52.2,56.0,50.3,17.58,15.2,215,11,22.3,0.00892,0.01191,74.7,72.8,16,920,0,108.0,15.84,0.00,0.00
15min,AgWx,beryljct,423,28JUL2018:13:00:00,92.2,13.33,89.6,90.3,89.8,90.5,89.2,28,31,26,1.441,52.3,54.8,50.0,15.54,15.0,221,11,21.1,0.00898,0.01193,75.4,72.9,16,940,0,106.2,15.84,0.00,0.00
15min,AgWx,beryljct,423,28JUL2018:13:15:00,92.4,13.34,90.0,89.8,90.3,91.0,89.8,27,33,24,1.466,52.1,56.6,49.6,14.51,15.1,215,15,24.8,0.00922,0.01224,76.0,73.0,16,967,0,107.6,15.84,0.00,0.00
15min,AgWx,beryljct,423,28JUL2018:13:30:00,92.7,13.29,90.3,90.9,90.4,91.4,89.8,27,31,23,1.308,52.2,55.3,48.7,13.94,14.3,226,13,19.9,0.00929,0.01222,76.7,73.2,16,991,0,107.4,15.84,0.00,0.00
15min,AgWx,beryljct,423,28JUL2018:13:45:00,93.4,13.3,91.7,92.4,91.9,92.9,90.8,24,27,22,1.257,50.4,52.5,48.3,17.3,14.6,201,11,21.6,0.00981,0.01292,77.3,73.3,16,1030,0,110.8,15.84,0.00,0.00
15min,AgWx,beryljct,423,28JUL2018:14:00:00,94.3,13.31,92.2,93.0,92.5,93.0,92.1,24,27,21,1.141,50.0,53.5,47.6,15.63,17.3,201,11,24.3,0.01074,0.01433,77.9,73.5,16,1105,0,111.2,15.84,0.00,0.00
15min,AgWx,beryljct,423,28JUL2018:14:15:00,94.6,13.31,91.3,90.4,91.8,93.2,90.2,23,26,21,1.252,49.3,52.6,45.8,16.92,16.3,210,15,23.4,0.00848,0.01179,78.6,73.7,16,754,0,105.2,15.84,0.00,0.00
15min,AgWx,beryljct,423,28JUL2018:14:30:00,93.2,13.34,89.3,89.3,89.6,90.4,88.9,24,26,22,1.095,48.3,51.0,46.6,20.58,15.1,214,11,23.6,0.00517,0.00802,79.2,73.9,16,226,0,93.9,15.85,0.01,0.00
15min,AgWx,beryljct,423,28JUL2018:14:45:00,91.3,13.36,88.8,90.3,88.8,90.5,87.0,19,29,13,0.789,40.1,51.4,32.4,5.196,12.8,255,34,32.0,0.00444,0.00710,79.8,74.2,16,148,0,90.5,15.84,0.00,0.00
15min,AgWx,beryljct,423,28JUL2018:15:00:00,90.3,13.41,88.4,89.5,88.5,90.3,87.6,24,27,16,1.061,47.1,50.1,38.7,5.568,9.6,203,18,19.0,0.00373,0.00570,80.2,74.4,16,172,0,91.8,15.84,0.00,0.00
15min,AgWx,beryljct,423,28JUL2018:15:15:00,89.6,13.39,88.0,88.9,88.2,89.6,86.5,26,31,22,1.164,49.4,52.7,46.0,13.94,10.4,223,17,17.8,0.00453,0.00659,80.4,74.6,16,308,0,93.3,15.84,0.00,0.00
15min,AgWx,beryljct,423,28JUL2018:15:30:00,91.4,13.36,91.8,92.0,91.8,93.5,88.9,26,31,23,1.367,51.6,55.3,48.3,14.12,10.9,214,16,19.0,0.00929,0.01183,80.5,74.8,16,1027,0,109.9,15.84,0.00,0.00
15min,AgWx,beryljct,423,28JUL2018:15:45:00,92.3,13.31,90.0,88.9,90.5,92.3,88.9,25,29,23,1.322,50.1,53.3,48.1,8.99,12.2,210,15,18.6,0.00514,0.00760,80.6,75.1,16,321,0,97.1,15.84,0.00,0.00
15min,AgWx,beryljct,423,28JUL2018:16:00:00,92.5,13.3,90.3,92.0,90.2,93.3,87.6,27,32,20,1.131,51.4,55.4,45.9,12.56,10.1,226,25,17.9,0.00678,0.00897,80.6,75.3,16,712,0,101.9,15.84,0.00,0.00
15min,AgWx,beryljct,423,28JUL2018:16:15:00,94.0,13.26,92.6,92.7,92.7,93.7,91.5,22,24,19,1.068,48.2,50.7,45.7,13.72,13.2,194,14,18.5,0.00770,0.01061,80.7,75.5,16,722,0,104.9,15.84,0.00,0.00
15min,AgWx,beryljct,423,28JUL2018:16:30:00,94.2,13.23,90.8,91.5,91.1,92.6,89.7,23,27,20,1.360,48.6,53.2,45.5,6.774,12.1,220,11,18.2,0.00682,0.00943,80.8,75.7,16,655,0,100.2,15.84,0.00,0.00
15min,AgWx,beryljct,423,28JUL2018:16:45:00,95.1,13.19,91.5,91.3,91.8,93.0,91.0,26,32,22,1.342,51.7,57.6,48.8,7.037,10.5,218,16,16.7,0.00741,0.00977,80.8,75.9,16,770,0,104.7,15.84,0.00,0.00
15min,AgWx,beryljct,423,28JUL2018:17:00:00,95.7,13.21,91.8,90.9,92.0,92.8,90.9,24,31,21,1.284,50.3,56.4,46.8,7.892,12.4,212,15,24.7,0.00747,0.01016,81.0,75.6,16,728,0,103.7,15.84,0.00,0.00
15min,AgWx,beryljct,423,28JUL2018:17:15:00,95.9,13.23,91.8,93.2,91.9,93.3,90.8,24,28,21,1.144,49.7,53.8,46.6,18.28,12.3,209,16,18.6,0.00690,0.00954,81.2,76.2,16,652,0,101.5,15.84,0.00,0.00
15min,AgWx,beryljct,423,28JUL2018:17:30:00,95.4,13.19,91.0,92.9,91.2,93.1,89.3,25,28,19,1.131,49.9,52.8,44.9,9.34,11.3,211,13,18.2,0.00582,0.00823,81.5,76.4,16,526,0,98.6,15.84,0.00,0.00
15min,AgWx,beryljct,423,28JUL2018:17:45:00,95.4,13.2,91.6,93.0,91.9,93.2,90.8,23,27,19,1.166,48.2,52.7,43.4,10.92,10.6,216,22,16.1,0.00624,0.00862,81.7,76.5,16,595,0,100.2,15.84,0.00,0.00
15min,AgWx,beryljct,423,28JUL2018:18:00:00,95.4,13.24,91.0,90.9,91.3,92.9,90.4,23,25,19,1.005,47.8,50.7,44.4,13.81,11.2,217,12,17.3,0.00590,0.00834,82.0,76.7,16,534,0,98.5,15.84,0.00,0.00
15min,AgWx,beryljct,423,28JUL2018:18:15:00,94.9,13.21,90.8,90.8,91.1,91.6,90.2,21,24,17,1.081,45.3,49.3,41.0,8.92,11.9,218,14,20.5,0.00550,0.00807,82.3,76.8,16,455,0,96.1,15.84,0.00,0.00
15min,AgWx,beryljct,423,28JUL2018:18:30:00,94.1,13.27,89.6,89.3,89.9,90.8,88.7,22,27,19,1.236,46.3,50.6,43.3,5.283,10.6,231,11,18.7,0.00449,0.00674,82.5,77.0,16,358,0,93.6,15.84,0.00,0.00
15min,AgWx,beryljct,423,28JUL2018:18:45:00,92.4,13.29,88.4,88.7,88.6,89.0,87.7,23,27,20,0.946,45.8,50.6,42.2,12.12,10.9,223,11,17.9,0.00306,0.00520,82.7,77.1,16,127,0,89.3,15.84,0.00,0.00
15min,AgWx,beryljct,423,28JUL2018:19:00:00,91.5,13.33,89.2,90.1,89.2,90.4,87.9,22,25,19,1.030,46.0,48.2,41.9,15.48,10.0,222,11,16.5,0.00373,0.00581,82.9,77.3,16,279,0,91.5,15.84,0.00,0.00
15min,AgWx,beryljct,423,28JUL2018:19:15:00,91.7,13.3,89.8,89.3,90.0,90.6,89.3,22,25,20,1.179,46.1,49.0,43.7,7.432,9.8,216,13,14.5,0.00387,0.00596,82.9,77.5,16,293,0,93.4,15.84,0.00,0.00
15min,AgWx,beryljct,423,28JUL2018:19:30:00,91.2,13.21,87.4,87.7,87.7,89.2,86.0,25,29,23,1.101,48.1,50.3,45.1,7.804,7.6,218,11,11.0,0.00239,0.00391,82.9,77.6,16,177,0,89.3,15.84,0.00,0.00
15min,AgWx,beryljct,423,28JUL2018:19:45:00,90.5,13.21,87.5,88.2,87.6,88.8,86.7,26,29,22,1.083,48.1,50.8,45.1,5.152,6.4,218,9.8,12.1,0.00203,0.00335,82.9,77.8,16,163,0,88.9,15.84,0.00,0.00
15min,AgWx,beryljct,423,28JUL2018:20:00:00,89.5,13.18,85.9,84.7,86.4,88.2,84.7,26,28,24,1.102,47.2,50.4,44.7,4.582,5.2,90,69,10.0,0.00105,0.00154,82.9,77.9,16,106,0,87.3,15.84,0.00,0.00
15min,AgWx,beryljct,423,28JUL2018:20:15:00,88.0,13.17,83.2,83.3,83.5,84.8,82.8,29,32,26,1.091,47.9,50.4,46.3,3.749,3.7,119,23,6.5,0.00065,0.00100,82.8,78.0,16,75,0,83.5,15.84,0.00,0.00
15min,AgWx,beryljct,423,28JUL2018:20:30:00,86.1,13.16,79.4,78.1,80.2,83.3,77.2,37,51,28,1.397,51.4,58.4,46.9,7.475,3.7,142,47,7.5,0.00048,0.00074,82.7,78.2,17,51,0,79.7,15.85,0.00,0.00
15min,AgWx,beryljct,423,28JUL2018:20:45:00,84.7,13.14,83.4,83.2,82.9,85.3,78.2,28,41,23,1.070,46.2,52.7,43.4,8.18,8.1,134,59,12.5,0.00112,0.00156,82.6,78.3,17,30,0,81.9,15.85,0.00,0.00
15min,AgWx,beryljct,423,28JUL2018:21:00:00,83.6,13.11,80.7,80.0,81.2,83.2,80.0,30,32,27,1.092,46.7,47.5,45.6,2.433,5.7,99,12,14.2,0.00069,0.00103,82.4,78.4,17,3,0,79.1,15.85,0.00,0.00
15min,AgWx,beryljct,423,28JUL2018:21:15:00,81.8,13.12,78.3,77.9,78.5,81.0,76.0,34,42,27,1.117,47.8,51.7,43.6,5.261,4.7,189,31,8.1,0.00046,0.00071,82.2,78.4,17,0,0,75.7,15.85,0.00,0.00
15min,AgWx,beryljct,423,28JUL2018:21:30:00,80.5,13.1,78.6,75.8,78.9,80.0,75.8,32,40,29,1.169,46.3,50.3,44.4,3.42,4.4,176,9.0,6.3,0.00044,0.00070,82.0,78.5,17,0,0,75.8,15.85,0.00,0.00
15min,AgWx,beryljct,423,28JUL2018:21:45:00,78.9,13.1,75.9,76.8,75.9,77.4,73.9,37,44,33,1.109,47.7,50.8,45.4,3.091,2.9,183,6.1,3.7,0.00016,0.00029,81.7,78.6,17,0,0,72.8,15.85,0.00,0.00
15min,AgWx,beryljct,423,28JUL2018:22:00:00,77.3,13.1,74.3,75.6,74.5,76.7,72.0,40,49,34,1.078,48.3,51.9,45.6,4.275,3.5,182,3.8,4.5,0.00022,0.00037,81.5,78.6,17,0,0,71.7,15.86,0.00,0.00
15min,AgWx,beryljct,423,28JUL2018:22:15:00,76.4,13.08,76.3,76.4,76.1,76.8,74.9,34,38,32,1.003,45.4,48.0,44.3,5.02,4.7,175,5.9,5.4,0.00045,0.00069,81.1,78.7,17,0,0,73.4,15.86,0.00,0.00
15min,AgWx,beryljct,423,28JUL2018:22:30:00,75.9,13.08,75.5,73.5,75.8,76.6,73.4,35,42,33,1.112,45.9,49.3,44.8,3.88,4.8,175,10,5.4,0.00045,0.00068,80.9,78.7,17,0,0,73.4,15.86,0.00,0.00
15min,AgWx,beryljct,423,28JUL2018:22:45:00,74.9,13.07,71.9,73.1,72.0,73.6,70.6,43,47,39,1.088,48.2,50.3,46.8,5.415,3.0,330,66,6.0,0.00012,0.00023,80.6,78.7,17,0,0,69.8,15.86,0.00,0.00
15min,AgWx,beryljct,423,28JUL2018:23:00:00,74.3,13.07,73.9,71.8,74.0,75.8,71.3,40,48,35,1.166,47.8,50.8,46.2,3.31,3.9,4.4,32,6.0,0.00027,0.00045,80.3,78.7,17,0,0,71.3,15.86,0.00,0.00
15min,AgWx,beryljct,423,28JUL2018:23:15:00,73.8,13.06,73.5,72.3,73.4,74.6,71.6,40,45,37,1.103,47.4,49.0,46.3,4.121,3.1,33,39,5.4,0.00016,0.00028,80.0,78.7,17,0,0,70.4,15.86,0.00,0.00
15min,AgWx,beryljct,423,28JUL2018:23:30:00,73.3,13.05,72.7,70.7,72.8,74.0,70.6,42,51,38,1.269,48.4,52.2,46.8,3.902,2.6,202,52,4.4,0.00006,0.00015,79.7,78.7,17,0,0,69.6,15.86,0.00,0.00
15min,AgWx,beryljct,423,28JUL2018:23:45:00,72.4,13.03,70.0,71.0,70.0,72.0,67.7,49,58,41,1.150,49.8,52.4,46.7,1.907,2.9,212,0.9,4.3,0.00007,0.00015,79.4,78.6,17,0,0,67.8,15.86,0.00,0.00
15min,AgWx,beryljct,423,29JUL2018:00:00:00,71.6,13.03,70.0,69.8,70.1,71.4,69.1,47,52,42,1.202,49.1,51.4,47.0,1.447,1.4,212,1.7,2.4,-0.00015,-0.00019,79.1,78.6,17,0,0,67.3,15.86,0.00,0.00
15min,AgWx,beryljct,423,29JUL2018:00:15:00,70.9,13.03,70.6,72.8,70.1,72.8,67.1,47,60,38,1.040,48.8,53.5,45.6,2.762,3.5,199,14,4.8,0.00015,0.00027,78.8,78.5,17,0,0,67.4,15.87,0.00,0.00
15min,AgWx,beryljct,423,29JUL2018:00:30:00,70.5,13.02,70.8,68.7,71.3,73.4,68.7,46,54,37,1.268,49.0,53.0,45.5,3.113,2.3,229,64,4.3,0.00000,0.00006,78.6,78.5,17,0,0,69.3,15.87,0.00,0.00
15min,AgWx,beryljct,423,29JUL2018:00:45:00,69.9,13.01,67.0,67.1,67.2,68.9,66.3,57,60,52,1.294,51.7,52.4,50.6,1.25,1.4,91,51,5.0,-0.00016,-0.00021,78.3,78.4,17,0,0,65.3,15.87,0.00,0.00
15min,AgWx,bigpiney,439,28JUL2018:01:00:00,52.2,12.8,49.0,47.6,48.1,49.3,47.2,66,71,60,0.758,37.4,39.1,35.6,3.025,1.7,270,16,3.4,-0.00010,-0.00012,56.5,55.0,52,0,0,0.0,.,0.00,0.00
15min,AgWx,bigpiney,439,28JUL2018:01:15:00,51.5,12.79,47.5,47.1,47.1,47.9,46.8,67,69,65,0.721,36.6,37.4,36.0,2.126,2.8,287,12,4.1,-0.00003,-0.00001,56.5,55.0,52,0,0,0.0,.,0.00,0.00
15min,AgWx,bigpiney,439,28JUL2018:01:30:00,51.0,12.78,41.6,43.2,46.4,47.4,43.2,67,74,64,0.698,36.0,36.6,35.4,4.691,2.1,280,55,5.7,-0.00007,-0.00007,56.4,55.0,52,0,0,0.0,.,0.00,0.00
15min,AgWx,bigpiney,439,28JUL2018:01:45:00,50.3,12.76,41.2,41.3,42.0,43.1,41.2,80,85,74,0.744,36.3,37.2,35.2,3.398,2.5,199,40,4.1,-0.00008,-0.00010,56.4,55.0,52,0,0,0.0,.,0.00,0.00
15min,AgWx,bigpiney,439,28JUL2018:02:00:00,49.4,12.76,44.2,43.7,42.1,43.7,41.1,83,85,77,0.750,37.5,37.9,36.7,4.253,4.1,247,6.9,5.4,-0.00005,-0.00005,56.3,55.1,52,0,0,0.0,.,0.00,0.00
15min,AgWx,bigpiney,439,28JUL2018:02:15:00,48.8,12.75,44.2,43.7,43.1,43.8,42.4,81,84,77,0.787,37.5,38.6,36.6,0,1.8,245,18,4.0,-0.00012,-0.00015,56.2,55.0,52,0,0,0.0,.,0.00,0.00
15min,AgWx,bigpiney,439,28JUL2018:02:30:00,48.5,12.75,44.6,44.4,44.9,45.9,43.7,74,81,70,0.750,37.2,38.4,36.5,3.003,2.0,271,37,3.5,-0.00010,-0.00012,56.2,55.0,52,0,0,0.0,.,0.00,0.00
15min,AgWx,bigpiney,439,28JUL2018:02:45:00,48.3,12.74,42.0,42.2,43.3,44.6,42.2,77,79,75,0.720,36.6,37.4,36.1,2.894,2.8,230,13,4.7,-0.00006,-0.00007,56.1,55.0,52,0,0,0.0,.,0.00,0.00
15min,AgWx,bigpiney,439,28JUL2018:03:00:00,48.0,12.73,43.6,43.7,43.0,43.8,41.7,76,79,73,0.711,35.8,36.6,35.3,3.332,2.2,242,18,4.0,-0.00009,-0.00010,56.0,55.0,52,0,0,0.0,.,0.00,0.00
15min,AgWx,bigpiney,439,28JUL2018:03:15:00,47.7,12.71,43.6,42.8,42.6,43.6,41.9,75,79,73,0.702,35.4,35.8,35.0,2.083,2.3,228,49,3.9,-0.00008,-0.00009,56.0,55.0,52,0,0,0.0,.,0.00,0.00
15min,AgWx,bigpiney,439,28JUL2018:03:30:00,47.5,12.7,41.7,42.1,42.3,43.1,41.5,76,80,73,0.702,35.3,36.2,34.7,1.6,1.8,235,29,3.9,-0.00011,-0.00014,55.9,55.0,52,0,0,0.0,.,0.00,0.00
15min,AgWx,bigpiney,439,28JUL2018:03:45:00,47.1,12.7,41.6,42.8,41.5,43.1,40.5,81,85,77,0.718,36.1,37.2,34.8,2.565,1.3,252,35,3.0,-0.00015,-0.00020,55.8,55.0,52,0,0,0.0,.,0.00,0.00
15min,AgWx,bigpiney,439,28JUL2018:04:00:00,46.6,12.68,39.3,39.0,39.7,42.6,38.9,83,86,77,0.679,35.1,35.9,34.6,4.121,2.1,220,21,4.1,-0.00011,-0.00013,55.8,54.9,52,0,0,0.0,.,0.00,0.00
15min,AgWx,bigpiney,439,28JUL2018:04:15:00,45.9,12.68,39.6,39.3,39.2,39.6,38.9,83,85,82,0.667,34.5,35.5,34.2,2.981,3.0,213,5.7,4.4,-0.00007,-0.00008,55.7,54.9,52,0,0,0.0,.,0.00,0.00
15min,AgWx,bigpiney,439,28JUL2018:04:30:00,45.3,12.67,39.1,38.6,38.8,39.5,38.3,83,85,81,0.668,34.0,34.3,33.7,4.341,3.6,223,11,4.4,-0.00005,-0.00006,55.6,55.0,52,0,0,0.0,.,0.00,0.00
15min,AgWx,bigpiney,439,28JUL2018:04:45:00,44.9,12.65,40.9,40.5,39.6,40.6,38.6,81,84,78,0.672,34.2,34.5,33.9,4.976,4.5,226,9.1,6.4,-0.00002,-0.00002,55.5,54.9,52,0,0,0.0,.,0.00,0.00
15min,AgWx,bigpiney,439,28JUL2018:05:00:00,44.7,12.64,42.5,41.3,40.6,41.3,40.1,79,81,78,0.699,34.5,35.5,34.0,1.425,3.6,246,43,6.1,-0.00004,-0.00003,55.4,54.9,52,0,0,0.0,.,0.00,0.00
15min,AgWx,bigpiney,439,28JUL2018:05:15:00,44.7,12.63,40.9,40.1,41.2,42.2,40.0,77,79,75,0.665,34.5,35.4,33.8,1.008,1.4,234,24,2.5,-0.00013,-0.00018,55.4,54.9,52,0,0,0.0,.,0.00,0.00
15min,AgWx,bigpiney,439,28JUL2018:05:30:00,44.6,12.61,40.4,40.3,40.9,41.8,40.2,80,82,78,0.696,35.1,35.7,34.2,0.526,1.5,247,19,2.6,-0.00013,-0.00017,55.3,54.8,52,0,0,0.0,.,0.00,0.00
15min,AgWx,bigpiney,439,28JUL2018:05:45:00,44.5,12.6,40.8,40.9,40.8,41.6,40.0,82,85,80,0.718,35.9,36.7,35.1,1.425,0.6,301,40,2.0,-0.00019,-0.00028,55.2,54.8,52,0,0,0.0,.,0.00,0.00
15min,AgWx,bigpiney,439,28JUL2018:06:00:00,44.5,12.59,41.7,41.3,40.7,41.3,40.3,81,84,79,0.737,35.4,36.8,34.9,0,1.3,217,3.7,2.1,-0.00014,-0.00019,55.1,54.8,52,1,0,0.0,.,0.00,0.00
15min,AgWx,bigpiney,439,28JUL2018:06:15:00,44.6,12.59,41.6,41.5,42.4,43.7,41.3,81,86,74,0.761,36.8,37.6,36.0,2.214,2.2,242,65,5.0,-0.00009,-0.00011,55.0,54.8,52,4,75,0.0,.,0.00,0.00
15min,AgWx,bigpiney,439,28JUL2018:06:30:00,44.9,12.59,41.2,40.9,41.2,41.5,40.9,86,87,86,0.754,37.4,37.6,37.2,4.012,2.8,232,9.7,4.6,-0.00012,-0.00007,55.0,54.8,52,11,100,0.0,.,0.00,0.00
15min,AgWx,bigpiney,439,28JUL2018:06:45:00,45.0,12.67,41.7,41.4,41.4,41.7,40.9,86,87,85,0.759,37.6,37.8,37.3,2.784,3.1,220,11,4.4,-0.00014,-0.00009,54.9,54.7,52,35,100,0.0,.,0.00,0.00
15min,AgWx,bigpiney,439,28JUL2018:07:00:00,45.3,12.7,45.7,44.8,42.4,44.8,41.4,86,87,85,0.858,38.6,40.6,37.4,3.003,2.3,225,16,3.6,0.00018,0.00023,54.8,54.7,52,119,100,0.0,.,0.00,0.00
15min,AgWx,bigpiney,439,28JUL2018:07:15:00,46.2,12.63,45.6,45.4,45.8,46.5,44.8,84,86,83,0.881,41.4,41.8,40.6,0.745,1.6,93,74,3.3,0.00019,0.00025,54.7,54.7,52,69,100,0.0,.,0.00,0.00
15min,AgWx,bigpiney,439,28JUL2018:07:30:00,46.8,12.72,45.5,45.5,45.4,46.0,45.1,84,87,79,0.851,40.8,41.6,39.9,1.885,0.8,149,7.0,2.6,0.00028,0.00031,54.7,54.6,52,54,100,0.0,.,0.00,0.00
15min,AgWx,bigpiney,439,28JUL2018:07:45:00,47.3,12.78,46.8,46.4,45.5,46.5,45.1,86,87,82,0.927,41.5,42.8,40.4,0,1.5,158,10,3.2,0.00047,0.00053,54.6,54.6,52,117,100,0.0,.,0.00,0.00
15min,AgWx,bigpiney,439,28JUL2018:08:00:00,48.0,12.87,49.8,49.0,47.8,49.0,46.4,83,86,78,0.927,42.9,43.5,42.3,0,0.9,174,11,2.9,0.00079,0.00086,54.5,54.6,52,196,100,0.0,.,0.00,0.00
15min,AgWx,bigpiney,439,28JUL2018:08:15:00,49.5,13.02,52.6,52.2,50.9,52.2,49.0,71,78,63,0.838,41.7,43.5,39.6,1.732,0.4,116,7.3,1.7,0.00112,0.00122,54.4,54.6,52,257,63,0.0,.,0.00,0.00
15min,AgWx,bigpiney,439,28JUL2018:08:30:00,51.4,13.31,53.4,53.4,53.0,53.5,52.2,62,66,60,0.873,40.5,42.1,39.4,0.022,1.2,116,22,2.7,0.00155,0.00173,54.4,54.5,52,325,0,0.0,.,0.00,0.00